Flag for U.S.A. Weather past 2 weeks in Temple, Texas, U.S.A.

Now
35 °F

Clear.


Feels Like: 32 °F
Forecast: 38 / 63 °F
Wind: 3 mph from South

Location: Fort Hood AAF Airport

Current Time: Dec 25, 2014 at 4:51:26 AM

Latest Report: Dec 25, 2014 at 3:58 AM


Visibility: 10 mi

Pressure: 30.03 "Hg

Humidity: 70%

Dew point: 26 °F

Location of TempleLocation

Historic Weather in Temple — Graph

°F

Temple temperature yesterday

Maximum temperature yesterday: 54 °F (at 2:58 PM)
Minimum temperature yesterday: 36 °F (at 11:58 PM)
Average temperature yesterday: 45 °F

Past Weeks' High & Low Weather Summary

 TemperatureHumidityPressure
High74 °F (Dec 13, 2:56 PM)100% (Dec 17, 10:58 PM)30.37 "Hg (Dec 17, 10:58 PM)
Low35 °F (Dec 25, 12:58 AM)26% (Dec 15, 2:55 PM)29.57 "Hg (Dec 22, 1:58 PM)
Average54 °F76%30.09 "Hg
* Reported Dec 10 3:56 AM — Dec 25 3:58 AM, Temple, Weather by CustomWeather, © 2014

Note: Actual official high and low records may vary slightly from our data, if they occured in-between our weather recording intervals... More about our weather records

Advertising

Temple weather history for previous 24 hours

 ConditionsComfort  
Time TempWeatherWind HumidityBarometerVisibility
3:58 AM
Dec 25
35 °FClear.3 mph70%30.03 "Hg10 mi
2:58 AM36 °FClear.6 mph67%30.04 "Hg10 mi
1:58 AM36 °FClear.5 mph69%30.04 "Hg10 mi
12:58 AM35 °FClear.2 mph77%30.03 "Hg9 mi
11:58 PM
Dec 24
36 °FClear.1 mph72%30.06 "Hg9 mi
10:58 PM38 °FClear.3 mph67%30.08 "Hg10 mi
9:58 PM39 °FClear.3 mph67%30.09 "Hg8 mi
8:58 PM44 °FClear.3 mph53%30.08 "Hg10 mi
7:58 PM45 °FClear.5 mph51%30.09 "Hg10 mi
6:58 PM47 °FClear.6 mph46%30.08 "Hg10 mi
5:58 PM49 °FClear.5 mph41%30.06 "Hg10 mi
4:58 PM53 °FSunny.13 mph37%30.05 "Hg10 mi
3:58 PM54 °FSunny.13 mph38%30.05 "Hg10 mi
2:58 PM54 °FSunny.12 mph40%30.05 "Hg10 mi
1:58 PM52 °FSunny.20 mph44%30.06 "Hg10 mi
12:58 PM51 °FSunny.15 mphN/A30.07 "Hg10 mi
11:58 AM49 °FSunny.20 mph51%30.09 "Hg10 mi
10:58 AM47 °FSunny.18 mph55%30.11 "Hg10 mi
9:58 AM45 °FScattered clouds.17 mph59%30.11 "Hg10 mi
8:58 AM42 °FSunny.13 mph69%30.10 "Hg10 mi
7:58 AM38 °FSunny.14 mph77%30.06 "Hg9 mi
6:58 AM38 °FClear.17 mph77%30.05 "Hg10 mi
5:58 AM38 °FPassing clouds.18 mph77%30.05 "Hg8 mi
4:58 AM40 °FPassing clouds.18 mph71%30.02 "Hg9 mi
Weather by CustomWeather, © 2014

See weather overviewHow to use our weather pages